{"data":{"norad_id":69090,"intl_designator":"2026-104T","name":"QIANFAN-144","alt_names":[],"object_type":"PAYLOAD","status":"ACTIVE","operator":null,"country":"PRC","launch_date":"2026-05-12","launch_site_code":"TAISC","launch_vehicle":null,"mission":null,"orbit_class":"UNKNOWN","rcs_meters":null,"size_class":null,"mass_kg":null,"dimensions":null,"purposes":[],"wikipedia_slug":null,"has_3d_model":false,"image_url":null,"decayed_at":null,"tle_current":{"epoch":"2026-05-25T04:12:52.538112Z","epoch_age_seconds":53779,"freshness":"FRESH","line1":"1 69090U 26104T   26145.17560808  .00000090  00000+0  32687-4 0  9998","line2":"2 69090  88.9867 344.2450 0002783 153.5511 206.5823 14.24071070  1828","mean_motion":14.2407107,"eccentricity":0.0002783,"inclination_deg":88.9867,"raan_deg":344.245,"arg_perigee_deg":153.5511,"mean_anomaly_deg":206.5823,"bstar":3.2687e-5,"rev_number":182,"period_min":101.11854880951,"perigee_km":809.61665973119,"apogee_km":813.61847712398,"semimajor_km":7189.7545684276,"source":"CELESTRAK","updated_at":"2026-05-25T13:38:09.053038Z"}}}